DW0860 Weather Reports


Display with metric or nautical units.
time (UTC)temp
F
wind
direction
speed
MPH
gust
MPH
rain 1hr
in
rain 24hr
in
rain mn
in
humidity
%
barometer
mb
20260503214554 63 227 4.0 11.0 0.00 0.00 0.00 41 1016.3
20260503213058 63 198 7.0 12.0 0.00 0.00 0.00 40 1016.4
20260503211600 62 202 7.0 13.0 0.00 0.00 0.00 42 1016.3
20260503210110 62 167 6.0 16.0 0.00 0.00 0.00 43 1016.5
20260503204555 62 227 5.0 16.0 0.00 0.00 0.00 40 1016.7
20260503203100 62 212 8.0 15.0 0.00 0.00 0.00 45 1017.1
20260503201553 62 189 7.0 16.0 0.00 0.00 0.00 43 1017.4
20260503200058 62 213 5.0 13.0 0.00 0.00 0.00 42 1017.6
20260503194601 62 235 6.0 12.0 0.00 0.00 0.00 42 1017.9
20260503193053 62 232 4.0 13.0 0.00 0.00 0.00 43 1018.3
20260503191554 61 161 6.0 12.0 0.00 0.00 0.00 44 1018.3
20260503190051 61 163 5.0 11.0 0.00 0.00 0.00 39 1018.6
20260503184552 60 196 6.0 15.0 0.00 0.00 0.00 40 1018.7
20260503183054 60 184 7.0 15.0 0.00 0.00 0.00 46 1019.0
20260503181549 60 213 3.0 11.0 0.00 0.00 0.00 40 1019.2
20260503180059 60 173 5.0 13.0 0.00 0.00 0.00 44 1019.2
20260503174557 59 78 2.0 14.0 0.00 0.00 0.00 42 1019.6
20260503173054 59 76 5.0 10.0 0.00 0.00 0.00 42 1019.9
20260503171552 58 234 4.0 9.0 0.00 0.00 0.00 40 1020.1
20260503110108 31 0 0.0 0.0 0.00 0.00 0.00 94 1020.1
20260503081552 35 0 0.0 0.0 0.00 0.00 0.00 92 1019.6
20260503071609 38 78 1.0 3.0 0.00 0.00 0.00 90 1019.1
20260503060110 39 0 0.0 0.0 0.00 0.00 0.00 93 1019.0
20260503054600 39 0 0.0 0.0 0.00 0.00 0.00 94 1019.0
20260503053051 38 0 0.0 0.0 0.00 0.00 0.00 93 1019.0
20260503051552 38 0 0.0 1.0 0.00 0.00 0.00 93 1019.0
20260503050054 38 0 0.0 0.0 0.00 0.00 0.00 92 1018.8
20260503044549 39 0 0.0 0.0 0.00 0.00 0.00 92 1018.7
20260503043050 39 0 0.0 0.0 0.00 0.00 0.00 92 1018.7
20260503041553 40 0 0.0 0.0 0.00 0.00 0.00 91 1018.6
20260503034551 41 0 0.0 0.0 0.00 0.00 0.00 90 1018.5
20260503033052 42 0 0.0 0.0 0.00 0.00 0.00 89 1018.6
20260503031602 42 0 0.0 0.0 0.00 0.00 0.00 88 1018.7
20260503030050 42 0 0.0 0.0 0.00 0.00 0.00 88 1018.6
20260503024551 43 0 0.0 0.0 0.00 0.00 0.00 85 1018.5
20260503023054 44 0 0.0 0.0 0.00 0.00 0.00 84 1018.3
20260503021600 45 0 0.0 1.0 0.00 0.00 0.00 82 1018.2
20260503020054 46 0 0.0 1.0 0.00 0.00 0.00 80 1018.0
20260503014609 47 0 0.0 0.0 0.00 0.00 0.00 78 1017.9
20260503013051 47 0 0.0 0.0 0.00 0.00 0.00 75 1017.7
20260503011600 47 0 0.0 0.0 0.00 0.00 0.00 74 1017.5
20260503010050 48 0 0.0 0.0 0.00 0.00 0.00 73 1017.4
20260503004611 49 0 0.0 1.0 0.00 0.00 0.00 71 1017.2
20260503003053 50 0 0.0 3.0 0.00 0.00 0.00 71 1017.1
20260503001604 51 0 0.0 0.0 0.00 0.00 0.00 69 1017.0
20260503000057 51 0 0.0 1.0 0.00 0.00 0.00 69 1016.9
20260502234554 52 0 0.0 3.0 0.00 0.00 0.00 66 1016.7
20260502233049 53 311 1.0 4.0 0.00 0.00 0.00 61 1016.7
20260502231552 54 18 1.0 8.0 0.00 0.00 0.00 58 1016.7
20260502230047 53 323 1.0 4.0 0.00 0.00 0.00 55 1016.7
20260502224548 55 26 1.0 9.0 0.00 0.00 0.00 53 1016.6
20260502223050 56 360 3.0 11.0 0.00 0.00 0.00 50 1016.6
20260502221550 55 35 2.0 5.0 0.00 0.00 0.00 50 1016.5
20260502220053 56 327 4.0 8.0 0.00 0.00 0.00 51 1016.5